Weather in Nephtekamsk

Russia / Republic of Bashkortostan     56°05′18″N   54°14′53″E
temp.,
°C
wind,
m/s
gust,
m/s
humid.,
%
clouds,
%
prec.,
mm/h
press.,
hPa
HPBL,
m
21 january, fri
fri2123:00−11s4109499 0.0 1020234
02:00−13s489646 0.0 1020139
05:00−14s489698 0.0 1021151
08:00−12s499593 0.1 1021210
11:00−13s489677 0.3 1022194
14:00−10s369486 0.1 1023210
17:00−13sse249746 0.1 102449
20:00−17se229954 0.0 102422
22 january, sat
sat2223:00−19se2210065 0.0 102523
02:00−19se2210066 0.0 102523
05:00−19se2210088 0.0 102526
08:00−18ese2310079 0.0 102635
11:00−15se3897100 0.1 1027144
14:00−10se379388 0.0 1027217
17:00−12se349693 0.0 102849
20:00−16ese2298100 0.0 102927
23 january, sun
sun2323:00−14se2697100 0.0 103092
02:00−11se3794100 0.0 1030137
05:00−11se2793100 0.0 1031132
08:00−14se2392100 0.0 103239
11:00−13se2689100 0.0 1033107
14:00−9sse3684100 0.0 1034177
17:00−9se2588100 0.0 1035100
20:00−9se2589100 0.0 103698
24 january, mon
mon2423:00−9sse2488100 0.0 103775
02:00−9se1293100 0.1 103831
05:00−9se1194100 0.3 103910
08:00−13se2296100 0.0 103910
11:00−13sse1195100 0.0 104015
14:00−9sw1284100 0.0 104086
17:00−11ssw1189100 0.0 103910
20:00−14w1191100 0.0 10409
25 january, tue
tue2523:00−15sw119227 0.0 10399
02:00−18ssw019596 0.0 10399
05:00−19ssw1199100 0.0 10389
08:00−20s11100100 0.0 10379
11:00−18s229872 0.0 103632
14:00−12ssw22916 0.0 1035101
17:00−14sse11955 0.0 10349
20:00−19sse22975 0.0 10339